{"data":{"norad_id":55361,"epoch":"2026-05-25T04:27:44.042688Z","epoch_age_seconds":58717,"freshness":"FRESH","line1":"1 55361U 23013AG  26145.18592642 -.00000887  00000+0 -22721-4 0  9996","line2":"2 55361  43.0035 216.5855 0001858 274.6181  85.4458 15.27574523183546","mean_motion":15.27574523,"eccentricity":0.0001858,"inclination_deg":43.0035,"raan_deg":216.5855,"arg_perigee_deg":274.6181,"mean_anomaly_deg":85.4458,"bstar":-2.2721e-5,"rev_number":18354,"period_min":94.267086699769,"perigee_km":481.7906847732,"apogee_km":484.34030762079,"semimajor_km":6861.202496197,"source":"CELESTRAK","updated_at":"2026-05-25T13:38:17.765862Z"}}